• In Hungary
  • List of Countries
  • For 7 days
  • Water Temperature
  • Satellite Maps
  • Weather Map
  • News
  • Weather Widgets
  • user-avatar
    Login

    Hourly Weather Parskiy Ugol

    Today, 25 May, Friday

    Time Temperature Precipitation Wind Pressure Humidity
    00:00 +15°C° 0 mm 5 mps 747 mmHg 91%
    01:00 +15°C° 0 mm 5 mps 747 mmHg 91%
    02:00 +14°C° 0 mm 5 mps 747 mmHg 92%
    03:00 +14°C° 0 mm 4 mps 747 mmHg 93%
    04:00 +14°C° 0 mm 4 mps 748 mmHg 92%
    05:00 +14°C° 0 mm 5 mps 748 mmHg 90%
    06:00 +14°C° 0 mm 6 mps 748 mmHg 89%
    07:00 +15°C° 0 mm 6 mps 749 mmHg 84%
    08:00 +16°C° 0 mm 7 mps 749 mmHg 79%
    09:00 +17°C° 0 mm 7 mps 749 mmHg 73%
    10:00 +18°C° 0 mm 7 mps 750 mmHg 70%
    11:00 +18°C° 0 mm 7 mps 750 mmHg 67%
    12:00 +20°C° 0 mm 7 mps 750 mmHg 63%
    13:00 +18°C° 0 mm 7 mps 751 mmHg 61%
    14:00 +18°C° 0 mm 7 mps 751 mmHg 59%
    15:00 +20°C° 0 mm 6 mps 751 mmHg 58%
    16:00 +19°C° 0 mm 6 mps 751 mmHg 59%
    17:00 +17°C° 0 mm 6 mps 751 mmHg 60%
    18:00 +16°C° 0 mm 6 mps 752 mmHg 61%
    19:00 +14°C° 0 mm 6 mps 752 mmHg 61%
    20:00 +13°C° 0 mm 5 mps 753 mmHg 62%
    21:00 +10°C° 0 mm 5 mps 754 mmHg 62%
    22:00 +9°C° 0 mm 5 mps 754 mmHg 63%
    23:00 +10°C° 0 mm 4 mps 755 mmHg 63%

    Tomorrow, 26 May, Saturday

    Time Temperature Precipitation Wind Pressure Humidity
    00:00 +8°C° 0 mm 4 mps 755 mmHg 64%
    01:00 +7°C° 0 mm 4 mps 756 mmHg 65%
    02:00 +7°C° 0 mm 3 mps 756 mmHg 67%
    03:00 +7°C° 0 mm 3 mps 757 mmHg 68%
    04:00 +7°C° 0 mm 3 mps 757 mmHg 68%
    05:00 +6°C° 0 mm 4 mps 758 mmHg 67%
    06:00 +7°C° 0 mm 4 mps 758 mmHg 67%
    07:00 +8°C° 0 mm 4 mps 759 mmHg 61%
    08:00 +9°C° 0 mm 5 mps 759 mmHg 55%
    09:00 +12°C° 0 mm 5 mps 760 mmHg 49%
    10:00 +13°C° 0 mm 5 mps 760 mmHg 47%
    11:00 +13°C° 0 mm 5 mps 760 mmHg 46%
    12:00 +14°C° 0 mm 5 mps 760 mmHg 45%
    13:00 +15°C° 0 mm 5 mps 760 mmHg 44%
    14:00 +15°C° 0 mm 4 mps 760 mmHg 44%
    15:00 +17°C° 0 mm 4 mps 760 mmHg 44%
    16:00 +15°C° 0 mm 4 mps 760 mmHg 47%
    17:00 +16°C° 0 mm 3 mps 760 mmHg 50%
    18:00 +16°C° 0 mm 2 mps 759 mmHg 54%
    19:00 +14°C° 0 mm 2 mps 760 mmHg 57%
    20:00 +12°C° 0 mm 1 mps 760 mmHg 61%
    21:00 +10°C° 0 mm 1 mps 760 mmHg 65%
    22:00 +10°C° 0 mm 1 mps 760 mmHg 66%
    23:00 +9°C° 0 mm 1 mps 760 mmHg 67%

    Day after tomorrow, 27 May, Sunday

    Time Temperature Precipitation Wind Pressure Humidity
    00:00 +9°C° 0 mm 1 mps 760 mmHg 68%
    01:00 +8°C° 0 mm 1 mps 760 mmHg 69%
    02:00 +8°C° 0 mm 1 mps 760 mmHg 71%
    03:00 +7°C° 0 mm 2 mps 761 mmHg 72%
    04:00 +7°C° 0 mm 2 mps 760 mmHg 72%
    05:00 +8°C° 0 mm 2 mps 760 mmHg 72%
    06:00 +9°C° 0 mm 2 mps 760 mmHg 72%
    07:00 +12°C° 0 mm 2 mps 760 mmHg 68%
    08:00 +12°C° 0 mm 3 mps 760 mmHg 63%
    09:00 +14°C° 0 mm 3 mps 759 mmHg 58%
    10:00 +16°C° 0 mm 3 mps 759 mmHg 55%
    11:00 +17°C° 0 mm 3 mps 759 mmHg 53%
    12:00 +18°C° 0 mm 4 mps 758 mmHg 50%
    13:00 +19°C° 0 mm 4 mps 758 mmHg 51%
    14:00 +19°C° 0 mm 4 mps 757 mmHg 51%
    15:00 +19°C° 0 mm 5 mps 756 mmHg 52%
    16:00 +19°C° 0 mm 4 mps 756 mmHg 56%
    17:00 +19°C° 0 mm 4 mps 755 mmHg 60%
    18:00 +18°C° 0 mm 4 mps 754 mmHg 64%
    19:00 +17°C° 0 mm 4 mps 754 mmHg 69%
    20:00 +14°C° 0 mm 4 mps 754 mmHg 74%
    21:00 +13°C° 0 mm 4 mps 754 mmHg 79%
    22:00 +13°C° 0 mm 4 mps 753 mmHg 79%
    23:00 +13°C° 0 mm 4 mps 753 mmHg 78%

    28 May, Monday

    Time Temperature Precipitation Wind Pressure Humidity
    00:00 +12°C° 0 mm 4 mps 753 mmHg 78%
    01:00 +12°C° 0 mm 4 mps 753 mmHg 81%
    02:00 +12°C° 0 mm 4 mps 753 mmHg 84%
    03:00 +11°C° 0 mm 3 mps 753 mmHg 87%
    04:00 +12°C° 0 mm 3 mps 753 mmHg 87%
    05:00 +12°C° 0 mm 3 mps 754 mmHg 86%
    06:00 +12°C° 0 mm 3 mps 754 mmHg 86%
    07:00 +13°C° 0 mm 4 mps 754 mmHg 75%
    08:00 +15°C° 0 mm 4 mps 755 mmHg 64%
    09:00 +17°C° 0 mm 4 mps 755 mmHg 53%
    10:00 +16°C° 0 mm 5 mps 755 mmHg 50%
    11:00 +17°C° 0 mm 5 mps 755 mmHg 47%
    12:00 +17°C° 0 mm 5 mps 755 mmHg 44%
    13:00 +17°C° 0 mm 5 mps 755 mmHg 44%
    14:00 +19°C° 0 mm 5 mps 755 mmHg 44%
    15:00 +19°C° 0 mm 5 mps 755 mmHg 44%
    16:00 +18°C° 0 mm 4 mps 755 mmHg 48%
    17:00 +18°C° 0 mm 4 mps 755 mmHg 52%
    18:00 +18°C° 0 mm 3 mps 755 mmHg 56%
    19:00 +16°C° 0 mm 3 mps 755 mmHg 59%
    20:00 +13°C° 0 mm 3 mps 755 mmHg 63%
    21:00 +12°C° 0 mm 2 mps 756 mmHg 66%
    22:00 +10°C° 0 mm 2 mps 756 mmHg 67%
    23:00 +9°C° 0 mm 2 mps 756 mmHg 68%

    29 May, Tuesday

    Time Temperature Precipitation Wind Pressure Humidity
    00:00 +8°C° 0 mm 2 mps 756 mmHg 69%
    01:00 +8°C° 0 mm 2 mps 756 mmHg 69%
    02:00 +7°C° 0 mm 2 mps 756 mmHg 70%
    03:00 +8°C° 0 mm 1 mps 756 mmHg 71%
    04:00 +8°C° 0 mm 2 mps 757 mmHg 70%
    05:00 +9°C° 0 mm 2 mps 757 mmHg 70%
    06:00 +9°C° 0 mm 2 mps 757 mmHg 70%
    07:00 +11°C° 0 mm 3 mps 757 mmHg 64%
    08:00 +13°C° 0 mm 3 mps 756 mmHg 59%
    09:00 +15°C° 0 mm 4 mps 756 mmHg 53%
    10:00 +17°C° 0 mm 4 mps 756 mmHg 52%
    11:00 +17°C° 0 mm 5 mps 756 mmHg 50%
    12:00 +19°C° 0 mm 5 mps 755 mmHg 48%
    13:00 +20°C° 0 mm 5 mps 755 mmHg 49%
    14:00 +20°C° 0 mm 5 mps 755 mmHg 49%
    15:00 +21°C° 0 mm 6 mps 754 mmHg 50%
    16:00 +21°C° 0 mm 5 mps 754 mmHg 54%
    17:00 +20°C° 0 mm 4 mps 753 mmHg 58%
    18:00 +20°C° 0 mm 4 mps 753 mmHg 62%
    19:00 +18°C° 0 mm 4 mps 753 mmHg 67%
    20:00 +17°C° 0 mm 3 mps 753 mmHg 71%
    21:00 +14°C° 0 mm 3 mps 752 mmHg 75%
    22:00 +14°C° 0 mm 3 mps 752 mmHg 76%
    23:00 +13°C° 0 mm 3 mps 752 mmHg 76%

    30 May, Wednesday

    Time Temperature Precipitation Wind Pressure Humidity
    00:00 +12°C° 0 mm 3 mps 752 mmHg 77%
    01:00 +12°C° 0 mm 3 mps 752 mmHg 78%
    02:00 +11°C° 0 mm 3 mps 751 mmHg 79%
    03:00 +11°C° 0 mm 3 mps 751 mmHg 80%
    04:00 +12°C° 0 mm 3 mps 751 mmHg 79%
    05:00 +12°C° 0 mm 3 mps 750 mmHg 79%
    06:00 +13°C° 0 mm 3 mps 750 mmHg 78%
    07:00 +16°C° 0 mm 3 mps 750 mmHg 74%
    08:00 +18°C° 0 mm 4 mps 749 mmHg 70%
    09:00 +20°C° 0 mm 4 mps 749 mmHg 65%
    10:00 +21°C° 0 mm 4 mps 748 mmHg 61%
    11:00 +22°C° 0 mm 5 mps 748 mmHg 58%
    12:00 +24°C° 0 mm 6 mps 747 mmHg 54%
    13:00 +24°C° 0.1 mm 6 mps 747 mmHg 54%
    14:00 +24°C° 0.1 mm 6 mps 746 mmHg 54%
    15:00 +24°C° 0.1 mm 7 mps 746 mmHg 54%
    16:00 +24°C° 0 mm 6 mps 745 mmHg 58%
    17:00 +23°C° 0 mm 5 mps 745 mmHg 62%
    18:00 +23°C° 0 mm 5 mps 744 mmHg 66%
    19:00 +21°C° 0 mm 5 mps 744 mmHg 68%
    20:00 +20°C° 0 mm 5 mps 743 mmHg 70%
    21:00 +19°C° 0 mm 5 mps 743 mmHg 72%
    22:00 +17°C° 0.1 mm 5 mps 743 mmHg 76%
    23:00 +16°C° 0.1 mm 5 mps 743 mmHg 80%
    Show more